Weather History for KARB - September, 2013

Change the Weather History Date:

Saturday, September 14, 2013

  Actual Average Record
Temperature  
Mean Temperature 49 °F -  
Max Temperature 68 °F 73 °F 88 °F (2002)
Min Temperature 32 °F 47 °F 32 °F (2013)
Degree Days  
Heating Degree Days 16    
Moisture  
Dew Point 36 °F    
Average Humidity 85    
Maximum Humidity 100    
Minimum Humidity 33    
Precipitation  
Precipitation 0.00 in - - ()
Sea Level Pressure  
Sea Level Pressure 30.15 in    
Wind  
Wind Speed 1 mph (WSW)    
Max Wind Speed 7 mph    
Max Gust Speed -    
Visibility 5 miles    
Events Fog    
Averages and records for this station are not official NWS values.
T = Trace of Precipitation, MM = Missing Value Source: NWS Daily Summary

Daily Weather History Graph

Daily Weather History Graph

Search for Another Location

Airport or City:

Trip Planner

Search our weather history database for the weather conditions in past years. The results will help you decide how hot, cold, wet, or windy it might be!

Date:

Astronomy

Sep. 14, 2013 Rise Set
Actual Time 7:14 AM EDT 7:45 PM EDT
Civil Twilight 6:45 AM EDT 8:14 PM EDT
Nautical Twilight 6:12 AM EDT 8:47 PM EDT
Astronomical Twilight 5:38 AM EDT 9:21 PM EDT
Moon 4:30 PM EDT (9/14) 1:40 AM EDT (9/14)
Length of Visible Light 13h 28m
Length of Day
12h 31m
Waxing Gibbous, 72% of the Moon is Illuminated
Sep 14
Waxing Gibbous
Sep 19
Full
Sep 26
Last Quarter
Oct 4
New
Oct 11
First Quarter

Hourly Weather History & Observations

Time (EDT) Temp. Windchill Dew Point Humidity Pressure Visibility Wind Dir Wind Speed Gust Speed Precip Events Conditions
12:53 AM 37.9 °F - 37.9 °F 100% 30.15 in 10.0 mi Calm Calm - N/A   Clear
1:11 AM 37.4 °F - 37.4 °F 100% 30.14 in 1.8 mi Calm Calm - N/A   Clear
1:18 AM 33.8 °F - 33.8 °F 100% 30.14 in 1.0 mi Calm Calm - N/A   Clear
1:22 AM 35.6 °F - 35.6 °F 100% 30.14 in 2.5 mi Calm Calm - N/A   Clear
1:29 AM 35.6 °F - 35.6 °F 100% 30.14 in 8.0 mi Calm Calm - N/A   Clear
1:53 AM 36.0 °F - 34.0 °F 93% 30.15 in 9.0 mi Calm Calm - N/A   Clear
2:23 AM 37.4 °F - 35.6 °F 93% 30.14 in 1.8 mi Calm Calm - N/A   Clear
2:34 AM 37.4 °F - 37.4 °F 100% 30.14 in 3.0 mi Calm Calm - N/A   Clear
2:53 AM 37.0 °F - 36.0 °F 96% 30.15 in 5.0 mi Calm Calm - N/A   Clear
3:02 AM 35.6 °F - 35.6 °F 100% 30.14 in 2.5 mi Calm Calm - N/A   Clear
3:09 AM 35.6 °F - 35.6 °F 100% 30.14 in 8.0 mi Calm Calm - N/A   Clear
3:46 AM 33.8 °F - 32.0 °F 93% 30.15 in 1.8 mi Calm Calm - N/A   Clear
3:51 AM 33.8 °F - 33.8 °F 100% 30.15 in 0.8 mi Calm Calm - N/A   Clear
3:53 AM 34.0 °F - 33.1 °F 96% 30.16 in 0.5 mi Calm Calm - N/A Fog Fog
4:27 AM 35.6 °F 32.8 °F 33.8 °F 93% 30.15 in 1.5 mi WSW 3.5 mph - N/A   Clear
4:34 AM 32.0 °F - 30.2 °F 93% 30.15 in 6.0 mi Calm Calm - N/A   Clear
4:53 AM 36.0 °F - 34.0 °F 93% 30.16 in 3.0 mi Calm Calm - N/A   Clear
4:55 AM 35.6 °F - 35.6 °F 100% 30.15 in 1.8 mi Calm Calm - N/A   Clear
5:02 AM 35.6 °F 32.8 °F 33.8 °F 93% 30.15 in 1.0 mi West 3.5 mph - N/A   Clear
5:06 AM 33.8 °F - 33.8 °F 100% 30.15 in 2.0 mi Calm Calm - N/A   Clear
5:24 AM 33.8 °F - 30.2 °F 87% 30.15 in 1.0 mi Calm Calm - N/A   Clear
5:32 AM 33.8 °F - 32.0 °F 93% 30.16 in 0.8 mi Calm Calm - N/A   Clear
5:43 AM 35.6 °F - 35.6 °F 100% 30.16 in 1.5 mi Calm Calm - N/A   Clear
5:45 AM 35.6 °F - 33.8 °F 93% 30.16 in 4.0 mi Calm Calm - N/A   Clear
5:53 AM 35.1 °F - 33.1 °F 92% 30.17 in 10.0 mi Calm Calm - N/A   Clear
6:07 AM 33.8 °F - 33.8 °F 100% 30.15 in 1.5 mi Calm Calm - N/A   Clear
6:14 AM 35.6 °F - 33.8 °F 93% 30.16 in 1.0 mi Calm Calm - N/A   Clear
6:23 AM 33.8 °F - 33.8 °F 100% 30.16 in 1.5 mi Calm Calm - N/A   Clear
6:25 AM 33.8 °F - 33.8 °F 100% 30.16 in 0.8 mi Calm Calm - N/A   Clear
6:53 AM 34.0 °F - 34.0 °F 100% 30.18 in 0.2 mi Calm Calm - N/A Fog Fog
7:32 AM 33.8 °F - 33.8 °F 100% 30.17 in 0.2 mi Calm Calm - N/A Fog Fog
7:53 AM 34.0 °F - 34.0 °F 100% 30.19 in 0.2 mi Calm Calm - N/A Fog Fog
8:03 AM 35.6 °F - 35.6 °F 100% 30.17 in 8.0 mi Calm Calm - N/A   Clear
8:53 AM 44.1 °F - 43.0 °F 96% 30.19 in 8.0 mi Calm Calm - N/A   Clear
9:53 AM 54.0 °F - 44.1 °F 69% 30.20 in 10.0 mi Calm Calm - N/A   Clear
10:53 AM 57.9 °F - 37.9 °F 47% 30.20 in 10.0 mi Calm Calm - N/A   Clear
11:53 AM 60.1 °F - 36.0 °F 41% 30.20 in 10.0 mi NNW 3.5 mph - N/A   Clear
12:53 PM 62.1 °F - 36.0 °F 38% 30.19 in 10.0 mi WSW 5.8 mph - N/A   Clear
1:53 PM 64.0 °F - 34.0 °F 33% 30.17 in 10.0 mi South 3.5 mph - N/A   Clear
2:53 PM 64.9 °F - 36.0 °F 34% 30.14 in 10.0 mi WSW 5.8 mph - N/A   Clear
3:53 PM 66.0 °F - 37.9 °F 36% 30.13 in 10.0 mi South 6.9 mph - N/A   Clear
4:53 PM 66.9 °F - 39.0 °F 36% 30.12 in 10.0 mi WNW 5.8 mph - N/A   Clear
5:53 PM 66.9 °F - 41.0 °F 39% 30.11 in 10.0 mi SW 5.8 mph - N/A   Clear
6:53 PM 63.0 °F - 42.1 °F 46% 30.12 in 10.0 mi SW 6.9 mph - N/A   Clear
7:53 PM 53.1 °F - 46.0 °F 77% 30.12 in 10.0 mi SSW 4.6 mph - N/A   Clear
8:53 PM 48.0 °F - 46.0 °F 93% 30.13 in 10.0 mi Calm Calm - N/A   Clear
9:53 PM 46.0 °F - 44.1 °F 93% 30.13 in 10.0 mi Calm Calm - N/A   Clear
10:53 PM 48.0 °F - 45.0 °F 89% 30.11 in 10.0 mi Calm Calm - N/A   Clear
11:53 PM 44.1 °F - 42.1 °F 93% 30.12 in 10.0 mi Calm Calm - N/A   Clear